Location: Morning Glory
(31.5701°N, 106.2158°W)
Time: 02:36:01
(UTC+00:00)

X-37B - Visible Passes

Search period start: 07 December 2022 00:00
Search period end: 17 December 2022 00:00
Orbit: 277 x 277 km, 45.0° (Epoch: 01 November)

Date Brightness Start Highest point End Pass type
(mag) Time Alt. Az. Time Alt. Az. Time Alt. Az.
07 Dec 1.1 00:58:36 10° W 01:00:53 34° NNW 01:02:05 20° NNE visible
08 Dec 2.2 00:59:50 10° WNW 01:01:39 18° NNW 01:02:51 14° N visible
09 Dec 2.7 01:01:37 10° NW 01:02:30 11° NNW 01:03:22 10° N visible
